[[{"header":{"parameterUnit":"m.s-1","parameterCategory":1,"la1":30.2992,"la2":30.254,"lo1":-89.0895,"lo2":-89.0443,"dy":0.0025,"dx":0.0025,"nx":19,"ny":19,"refTime":"2026-04-19T03:00:00:Z","depth":0,"parameterNumber":2,"parameterNumberName":"U-component_of_WINDS"},"data":[0,0,0,-4.2828,-4.2831,-4.2956,-4.2956,-4.3172,-4.3174,0,0,0,0,0,0,0,0,0,0,0,-4.2824,-4.2827,-4.2827,-4.2832,-4.2956,-4.2956,-4.3171,-4.3174,0,0,0,0,0,0,0,0,0,0,0,-4.2823,-4.2826,-4.2829,-4.2832,-4.2956,-4.2956,-4.3171,-4.3057,0,0,0,0,0,0,0,0,0,0,-4.2926,-4.2955,-4.2825,-4.2829,-4.2833,-4.2956,-4.2956,-4.305,-4.3064,-4.3139,0,-4.3214,0,-4.3198,-4.3192,-4.3193,0,0,0,-4.2807,-4.2944,-4.2947,-4.283,-4.2835,-4.2956,-4.2893,-4.3057,-4.3073,-4.3157,-4.3216,-4.3223,-4.3201,-4.3194,-4.3195,-4.371,-4.3713,0,0,-4.28,-4.2865,-4.2937,-4.2959,-4.2943,-4.2889,-4.2897,-4.3066,-4.3135,-4.3217,-4.3227,-4.3205,-4.3195,-4.3197,-4.3706,-4.3711,0,0,0,-4.2797,-4.2861,-4.2859,-4.2952,-4.297,-4.2893,-4.2902,-4.3127,-4.3121,-4.3229,-4.3207,-4.3197,-4.32,-4.3702,-4.3708,-4.3952,0,0,0,-4.2791,-4.2859,-4.2857,-4.2898,-4.2968,-4.305,-4.2962,-4.3109,-4.3126,-4.3206,-4.3197,-4.3203,-4.3698,-4.3705,-4.3936,-4.4059,0,0,0,-4.2805,-4.286,-4.2889,-4.2901,-4.2957,-4.3046,-4.3048,-4.3111,-4.3115,-4.3193,-4.3204,-4.3695,-4.3704,-4.3923,-4.4036,-4.4218,0,0,0,-4.2838,-4.3102,-4.2894,-4.3181,-4.2957,-4.3194,-4.3047,-4.3219,-4.3315,-4.3198,-4.3699,-4.3707,-4.3918,-4.4022,-4.4204,-4.4389,-4.4469,0,0,-4.3208,-4.3149,-4.3312,-4.313,-4.3422,-4.3169,-4.3496,-4.3521,-4.3468,-4.3632,-4.3644,-4.3942,-4.4034,-4.4215,-4.4887,-4.4953,0,0,0,-4.3452,-4.3572,-4.3634,-4.3729,-4.3754,-4.3787,-4.3755,-4.3764,-4.39,-4.3565,-4.405,-4.4103,-4.4207,-4.4293,-4.4348,-4.4436,-4.3747,-4.3746,-4.3746,-4.4075,-4.3993,-4.4259,-4.4193,-4.4286,-4.425,-4.4319,-4.4325,-4.4213,-4.4329,-4.4381,-4.4799,-4.4901,-4.4942,-4.5034,-4.4464,-4.4465,-4.4466,-4.4467,-4.4617,-4.4776,-4.462,-4.4824,-4.4736,-4.4906,-4.488,-4.4796,-4.4943,-4.4752,-4.484,-4.4647,-4.5016,-4.5093,-4.4484,-4.4481,-4.4479,-4.4477,-4.4476,-4.5023,-4.5086,-4.509,-4.5219,-4.5327,-4.5247,-4.5397,-4.5307,-4.5225,-4.531,-4.5359,-4.5355,-4.5346,-4.5338,-4.5339,-4.5341,-4.5342,-4.5343,-4.5344,-4.5446,-4.5444,-4.5581,-4.5629,-4.5679,-4.5732,-4.5696,-4.5743,-4.5772,-4.5696,-4.5696,-4.5579,-4.5064,-4.4942,-4.5366,-4.5362,-4.5359,-4.5357,-4.5356,-4.6042,-4.5892,-4.6105,-4.6155,-4.6204,-4.6321,-4.6201,-4.6304,-4.6329,-4.6406,-4.6266,-4.5897,-4.5832,-4.5788,-4.5687,-4.6278,-4.6278,-4.6279,-4.6279,-4.6392,-4.6346,-4.6545,-4.6631,-4.6704,-4.6619,-4.6864,-4.6838,-4.6788,-4.6799,-4.6697,-4.6552,-4.651,-4.647,-4.641,-4.6315,-4.7054,-4.7055,-4.7055,-4.6756,-4.6714,-4.6942,-4.6889,-4.6921,-4.6951,-4.718,-4.7286,-4.7196,-4.7085,-4.6807,-4.6774,-4.6538,-4.6464,-4.6357,-4.6267,-4.609,0,0]},{"header":{"parameterUnit":"m.s-1","parameterCategory":1,"la1":30.2992,"la2":30.254,"lo1":-89.0895,"lo2":-89.0443,"dy":0.0025,"dx":0.0025,"nx":19,"ny":19,"refTime":"2026-04-19T03:00:00:Z","depth":0,"parameterNumber":3,"parameterNumberName":"V-component_of_WINDS"},"data":[0,0,0,-5.2736,-5.2739,-5.2857,-5.2857,-5.3029,-5.303,0,0,0,0,0,0,0,0,0,0,0,-5.2716,-5.2718,-5.2736,-5.2739,-5.2857,-5.2857,-5.3028,-5.303,0,0,0,0,0,0,0,0,0,0,0,-5.2716,-5.2718,-5.272,-5.274,-5.2857,-5.2857,-5.3028,-5.2931,0,0,0,0,0,0,0,0,0,0,-5.2812,-5.2811,-5.2717,-5.272,-5.274,-5.2857,-5.2857,-5.2926,-5.2937,-5.2985,0,-5.3035,0,-5.3036,-5.3044,-5.3044,0,0,0,-5.2727,-5.2801,-5.2819,-5.272,-5.2742,-5.2857,-5.28,-5.2932,-5.2944,-5.3,-5.3037,-5.3042,-5.3038,-5.3045,-5.3046,-5.337,-5.3372,0,0,-5.272,-5.2745,-5.2811,-5.2829,-5.2815,-5.2797,-5.2804,-5.2939,-5.298,-5.3037,-5.3046,-5.3041,-5.3046,-5.3048,-5.3368,-5.337,0,0,0,-5.271,-5.2742,-5.2756,-5.2822,-5.2842,-5.28,-5.2809,-5.2974,-5.2976,-5.3048,-5.3043,-5.3047,-5.305,-5.3366,-5.3369,-5.3498,0,0,0,-5.2705,-5.2735,-5.2753,-5.277,-5.284,-5.291,-5.2841,-5.2967,-5.2981,-5.3042,-5.3047,-5.3051,-5.3363,-5.3367,-5.3489,-5.3554,0,0,0,-5.2703,-5.2735,-5.2758,-5.2771,-5.2823,-5.2907,-5.2917,-5.297,-5.298,-5.3044,-5.3052,-5.3362,-5.3367,-5.3482,-5.3542,-5.3647,0,0,0,-5.2708,-5.287,-5.276,-5.2938,-5.2822,-5.2987,-5.2916,-5.3037,-5.3108,-5.3048,-5.3364,-5.3369,-5.3479,-5.3534,-5.3639,-5.3741,-5.3786,0,0,-5.2926,-5.2897,-5.3,-5.2905,-5.3096,-5.2967,-5.3175,-5.3215,-5.3197,-5.3312,-5.332,-5.3492,-5.3541,-5.3645,-5.4027,-5.4063,0,0,0,-5.3077,-5.3151,-5.3196,-5.3267,-5.3302,-5.3337,-5.3343,-5.3357,-5.3454,-5.3263,-5.3558,-5.3586,-5.3646,-5.3693,-5.3724,-5.3773,-5.3391,-5.3391,-5.339,-5.3422,-5.3391,-5.3559,-5.3543,-5.3611,-5.3615,-5.3667,-5.3686,-5.3634,-5.3704,-5.3739,-5.3974,-5.4031,-5.4053,-5.4106,-5.3789,-5.379,-5.379,-5.3791,-5.3738,-5.3838,-5.3766,-5.3903,-5.3868,-5.3982,-5.3991,-5.395,-5.4049,-5.3946,-5.3997,-5.3888,-5.4094,-5.4138,-5.38,-5.3798,-5.3797,-5.3796,-5.3796,-5.396,-5.4003,-5.4019,-5.4116,-5.4194,-5.417,-5.4269,-5.4234,-5.42,-5.4251,-5.4283,-5.4281,-5.4274,-5.4269,-5.427,-5.4271,-5.4271,-5.4272,-5.4272,-5.4185,-5.4199,-5.4288,-5.4339,-5.4379,-5.4426,-5.4431,-5.4468,-5.45,-5.4466,-5.4466,-5.4406,-5.412,-5.4049,-5.4285,-5.4283,-5.4281,-5.428,-5.4279,-5.4518,-5.4437,-5.4575,-5.4615,-5.4671,-5.475,-5.4703,-5.4782,-5.4807,-5.4856,-5.4785,-5.458,-5.4547,-5.4522,-5.4463,-5.4792,-5.4792,-5.4792,-5.4792,-5.4706,-5.4686,-5.4818,-5.4884,-5.4944,-5.4916,-5.507,-5.5075,-5.5066,-5.5079,-5.5026,-5.4944,-5.4921,-5.4901,-5.4869,-5.4813,-5.5224,-5.5224,-5.5224,-5.4908,-5.4892,-5.5032,-5.5025,-5.5065,-5.51,-5.5244,-5.532,-5.5293,-5.5241,-5.5088,-5.507,-5.4938,-5.4896,-5.4842,-5.4792,-5.4689,0,0]}]]